Regional Weather Roundup
Issued by NWS

Home | Current Version | Previous Version | Graphics & Text | Print | Product List | Glossary On
Versions: 1 2 3 4 5 6 7 8 9 10 11 12 13 14 15 16 17 18 19 20 21 22 23 24 25 26 27 28 29 30 31 32 33 34 35 36 37 38 39 40 41 42 43 44 45 46 47 48 49
000
ASUS45 KCYS 190810
RWRWY

WYOMING REGIONAL WEATHER ROUNDUP
NATIONAL WEATHER SERVICE CHEYENNE WY
200 AM MDT SUN APR 19 2015

NOTE:  "FAIR" INDICATES FEW OR NO CLOUDS BELOW 12,000 FEET
WITH NO SIGNIFICANT WEATHER AND/OR OBSTRUCTIONS TO VISIBILITY.

WYZ001-190900-
YELLOWSTONE NATIONAL PARK

CITY           SKY/WX    TMP DP  RH WIND       PRES   REMARKS
LK YELLOWSTONE   N/A     25  18  74 CALM      30.21F
W YELLOWSTONE  NOT AVBL

$$
WYZ002>013-054>058-071-098>099-190900-
NORTHERN WYOMING

CITY           SKY/WX    TMP DP  RH WIND       PRES   REMARKS
JACKSON        FAIR      36  21  55 NE9       30.17S WCI  29
CODY             N/A     34  30  86 CALM      30.25S
GREYBULL       FAIR      41  25  53 NW16      30.22S
WORLAND        FAIR      40  26  57 W10       30.21S WCI  33
SHERIDAN       FAIR      36  28  73 W13       30.20F WCI  27
BUFFALO        FAIR      36  28  73 NW18      30.18F WCI  26
GILLETTE       FAIR      35  29  78 NW17      30.13S WCI  25
HULETT         FAIR      37  27  65 NW12G18   30.12R WCI  30
NEWCASTLE      FAIR      36  30  80 NW16      30.08R WCI  26

$$
WYZ014>020-022>026-101>103-190900-
CENTRAL WYOMING

CITY           SKY/WX    TMP DP  RH WIND       PRES   REMARKS
BIG PINEY      CLOUDY    37  28  70 SW9       30.16S WCI  30
PINEDALE       PTSUNNY   36  30  80 SW12G18   30.15R WCI  27
DUBOIS         CLOUDY    32  27  80 SE5       30.18S WCI  27
LANDER         CLOUDY    35  31  85 SE3       30.21S
RIVERTON       CLOUDY    38  26  62 NE14      30.20S WCI  30
CASPER         FAIR      32  27  81 N8        30.17S WCI  25
DOUGLAS        CLOUDY    36  30  79 NW18G26   30.14R WCI  26

$$
WYZ021-027>030-104>119-190900-
SOUTHERN WYOMING

CITY           SKY/WX    TMP DP  RH WIND       PRES   REMARKS
EVANSTON       FAIR      38  29  70 NE6       30.13R WCI  33
KEMMERER       PTSUNNY   36  32  87 E14G25    30.16R WCI  27
FORT BRIDGER   MOSUNNY   36  36 100 E13       30.17R WCI  27
ROCK SPRINGS   CLOUDY    34  30  85 E16       30.18R WCI  24
DIXON          CLOUDY    37  32  81 NE14G22   30.15R WCI  28
RAWLINS        CLOUDY    33  28  81 N12       30.15R WCI  24
SARATOGA       CLOUDY    32  32 100 N6        30.14R WCI  26
LARAMIE        FLURRIES  32  29  88 N15       30.09R WCI  22
CHEYENNE       CLOUDY    36  32  85 N21G33    30.04R WCI  25
TORRINGTON     MOCLDY    43  31  62 N21G38    30.03R
PINE BLUFFS    DRIZZLE   37  36  93 N29G35    30.01S WCI  25

$$



USA.gov is the U.S. government's official web portal to all federal, state and local government web resources and services.